Regional Weather Roundup
Issued by NWS

Home | Current Version | Previous Version | Graphics & Text | Print | Product List | Glossary On
Versions: 1 2 3 4 5 6 7 8 9 10 11 12 13 14 15 16 17 18 19 20 21 22 23 24 25 26 27 28 29 30 31 32 33 34 35 36 37 38 39 40 41 42 43 44 45 46 47 48 49 50
000
ASUS43 KFSD 252302
RWRSD

WEATHER ROUNDUP FOR SOUTH DAKOTA
NATIONAL WEATHER SERVICE SIOUX FALLS SD
600 PM CDT FRI MAY 25 2018

NOTE: "FAIR" INDICATES FEW OR NO CLOUDS BELOW 12,000 FEET WITH NO
SIGNIFICANT WEATHER AND/OR OBSTRUCTIONS TO VISIBILITY.


SDZ001>005-009-010-012>017-260000-
NORTHWEST AND NORTH CENTRAL SOUTH DAKOTA

CITY           SKY/WX    TMP DP  RH WIND       PRES   REMARKS
BUFFALO          N/A     83  49  30 W16G30    29.80F
FAITH            N/A     83  53  35 W12       29.83S
MOBRIDGE       SUNNY     89  58  34 W10       29.72F
$$

SDZ012>016-024>037-041>051-057-063-072>074-260000-
SOUTHWEST AND SOUTH CENTRAL SOUTH DAKOTA

CITY           SKY/WX    TMP DP  RH WIND       PRES   REMARKS
RAPID CTY ARPT MOSUNNY   77  61  57 CALM      29.89F
PIERRE         SUNNY     86  59  39 NW12      29.77F
CUSTER         MOSUNNY   76  44  32 W8G17     30.02F
ELLSWORTH AFB  MOSUNNY   81  56  41 CALM      29.89F
PHILIP         MOSUNNY   85  58  39 NW7       29.82F
PINE RIDGE     SUNNY     84  53  34 W10       29.89F
SPEARFISH      FAIR      81  52  36 NW9       29.93S
WINNER         FAIR      87  64  46 NW6       29.80F
$$

SDZ004>011-016>023-039-040-260000-
NORTHEAST SOUTH DAKOTA

CITY           SKY/WX    TMP DP  RH WIND       PRES   REMARKS
ABERDEEN       SUNNY     93  48  21 NW16G23   29.70S
WATERTOWN      SUNNY     86  55  34 NW12      29.72S
BROOKINGS      MOSUNNY   89  55  31 W20       29.72F THUNDER
SISSETON         N/A     92  51  24 W17       29.65F
$$

SDZ017-020-022-023-036>040-048>070-260000-
SOUTHEAST SOUTH DAKOTA

CITY           SKY/WX    TMP DP  RH WIND       PRES   REMARKS
SIOUX FALLS    CLOUDY    84  61  45 W7        29.73F
HURON          SUNNY     90  53  28 W17G28    29.71F
MITCHELL       MOSUNNY   89  60  37 NW10G16   29.73F
YANKTON        SUNNY     91  57  31 SW5       29.74F
$$

ABBREVIATIONS USED IN REMARKS
   TC - TEMPERATURE IN CELSIUS
  WCI - WIND CHILL INDEX
   HX - HEAT INDEX
  VSB - VISIBILITY





USA.gov is the U.S. government's official web portal to all federal, state and local government web resources and services.